Location: Red Bud (historical)
(37.7759°N, 88.4053°W)
Time: 00:04:01
(UTC+00:00)

YAOGAN 1 - Pass Details

Date: 29 October 2020
Orbit: 618 x 620 km, 97.9° (Epoch: 28 November)

Event Time Altitude Azimuth Distance (km) Brightness Sun altitude
Rises 23:41:39 0° 133° (SE) 2,885 5.6 -9.3°
Reaches altitude 10° 23:44:15 10° 117° (ESE) 1,984 4.7 -9.8°
Maximum altitude 23:47:29 21° 68° (ENE) 1,401 3.8 -10.4°
Drops below altitude 10° 23:50:44 10° 19° (NNE) 1,993 4.9 -11.1°
Sets 23:53:20 0° 4° (N) 2,904 5.9 -11.6°
